Wind_Speed
43 43 41 40 43 45 44 48 50 53 58 60 58 61 62 62 64 64 65 72 76 75 71 64 54 52 54
44 44 40 42 41 43 45 49 53 55 59 55 62 62 62 63 64 64 68 74 73 68 63 54 49 53 54
48 43 43 41 42 46 46 48 52 56 57 57 61 62 62 62 63 66 71 71 68 60 51 47 50 54 57
45 42 46 40 46 43 45 48 51 54 54 58 61 62 61 63 64 69 72 69 61 53 43 48 49 52 55
41 44 45 43 46 42 45 47 50 55 55 58 61 61 61 62 65 71 69 64 55 42 43 46 45 49 51
40 45 45 45 44 42 46 48 52 53 55 60 63 62 61 62 66 69 63 58 46 39 43 43 43 44 45
40 45 46 46 43 44 46 49 50 53 58 62 63 61 61 64 67 65 59 51 36 41 42 44 43 39 39
46 45 43 43 43 45 47 44 52 56 58 62 61 61 62 65 67 61 55 39 35 41 41 42 41 36 33
42 46 43 41 42 45 45 51 53 54 58 62 61 61 63 67 64 58 45 30 36 41 41 43 39 33 29
44 45 43 42 41 43 46 50 49 54 58 59 60 61 64 66 61 50 33 35 39 42 46 41 36 29 27
42 44 41 40 38 42 45 45 51 54 57 57 59 61 65 59 56 39 37 37 40 44 45 39 33 28 23
40 39 39 36 37 39 46 48 52 54 55 56 58 62 64 53 41 38 42 41 42 44 43 42 33 24 17
36 36 37 37 38 41 46 48 51 53 54 55 58 63 57 43 33 38 40 42 42 42 43 37 25 20 14
35 34 40 39 36 41 45 48 50 51 52 54 59 59 48 37 35 38 40 41 43 42 40 27 21 15 15
37 33 40 34 36 38 42 45 48 48 50 53 59 49 39 32 37 40 43 43 42 38 29 21 15 19 20
36 37 36 31 36 37 39 43 45 47 49 54 55 46 38 35 38 41 44 40 37 27 22 23 20 17 17
34 33 28 34 36 34 37 41 43 45 49 54 47 38 34 39 40 41 38 34 30 26 22 21 21 21 19
Wind_Direction
282 285 287 295 301 300 301 303 303 307 308 310 312 312 314 313 313 315 317 319 322 320 316 313 314 314 313
281 282 289 294 300 300 300 302 304 304 307 311 313 314 315 314 315 317 320 324 322 317 316 316 314 316 315
281 282 286 293 296 294 299 300 302 306 309 312 314 315 316 315 317 320 324 323 320 316 317 316 317 320 319
278 282 288 294 293 299 298 302 305 309 307 312 313 316 316 318 319 324 325 323 319 318 317 319 321 325 326
276 280 287 291 295 301 303 306 311 313 311 311 315 316 317 320 322 326 324 320 320 318 319 323 323 327 331
274 277 288 292 296 303 305 309 313 312 312 313 317 316 319 322 325 327 321 321 319 318 322 324 321 327 332
278 284 289 294 298 303 307 312 314 312 314 315 317 318 319 323 327 325 322 320 316 322 321 320 320 321 329
284 284 290 294 300 304 309 315 316 313 314 316 317 317 321 325 329 324 323 316 319 321 321 321 321 316 324
283 283 288 294 301 303 309 316 313 313 314 317 317 320 323 328 329 324 322 314 319 317 318 323 320 309 315
283 283 288 295 302 306 310 315 312 313 315 317 318 323 327 330 327 325 320 321 319 318 319 323 317 307 303
284 283 291 300 305 309 316 315 314 314 316 318 321 324 330 327 325 324 324 324 323 322 323 325 317 308 294
285 287 293 300 304 310 317 315 312 314 317 319 322 327 331 327 325 329 327 327 325 324 323 326 316 307 290
289 293 298 298 307 317 317 315 313 315 317 321 324 329 329 329 325 330 329 329 326 324 325 327 317 314 302
287 294 301 305 316 319 314 312 313 315 319 322 329 330 329 330 329 329 328 328 325 326 327 333 326 325 322
284 296 296 306 314 308 309 310 313 315 320 326 330 328 332 328 329 329 329 329 329 328 327 335 331 326 321
281 288 298 304 304 303 306 311 313 317 322 329 330 331 330 329 330 331 329 332 335 335 328 327 330 331 328
280 288 294 296 298 300 307 312 314 319 327 331 331 333 334 335 334 336 331 335 341 342 340 337 333 325 328
Height
5609 5606 5603 5600 5595 5592 5586 5581 5576 5569 5561 5551 5540 5530 5520 5509 5499 5489 5478 5466 5453 5438 5422 5408 5396 5386 5377
5597 5596 5592 5589 5584 5582 5576 5571 5564 5557 5549 5537 5528 5517 5507 5496 5485 5475 5463 5450 5436 5420 5405 5394 5384 5374 5363
5586 5585 5582 5578 5574 5570 5564 5558 5552 5545 5536 5526 5515 5503 5493 5483 5471 5460 5448 5433 5420 5404 5392 5382 5372 5361 5349
5574 5573 5571 5567 5563 5557 5553 5546 5539 5532 5523 5512 5503 5491 5480 5469 5459 5447 5432 5418 5404 5392 5381 5372 5362 5351 5338
5561 5560 5558 5555 5552 5546 5541 5534 5526 5519 5511 5500 5491 5480 5469 5456 5445 5432 5417 5403 5391 5381 5372 5362 5353 5343 5331
5550 5547 5546 5544 5541 5536 5529 5521 5515 5508 5499 5488 5479 5467 5457 5444 5432 5417 5403 5390 5380 5371 5363 5354 5345 5336 5326
5537 5536 5535 5534 5531 5526 5518 5510 5503 5496 5486 5476 5466 5456 5446 5435 5421 5405 5391 5379 5370 5363 5353 5345 5338 5330 5321
5526 5525 5525 5523 5520 5515 5507 5499 5493 5484 5473 5464 5454 5444 5435 5424 5409 5394 5381 5371 5364 5355 5346 5338 5330 5323 5316
5518 5515 5514 5511 5509 5504 5496 5489 5482 5473 5463 5453 5443 5432 5423 5412 5398 5384 5372 5365 5356 5347 5339 5331 5323 5315 5310
5508 5506 5504 5501 5498 5493 5487 5478 5471 5463 5452 5443 5432 5421 5411 5397 5386 5374 5364 5356 5348 5339 5331 5323 5315 5308 5302
5498 5497 5495 5492 5487 5482 5476 5468 5461 5451 5442 5432 5422 5411 5399 5385 5371 5362 5356 5348 5339 5330 5322 5314 5307 5301 5295
5489 5487 5486 5481 5477 5472 5466 5458 5451 5442 5432 5422 5412 5402 5389 5375 5364 5355 5346 5339 5331 5321 5313 5306 5298 5293 5290
5480 5478 5476 5472 5467 5462 5457 5449 5440 5432 5422 5413 5403 5392 5380 5369 5359 5349 5342 5331 5323 5314 5306 5299 5291 5287 5285
5472 5469 5467 5463 5458 5453 5448 5440 5432 5424 5414 5404 5394 5383 5370 5360 5353 5344 5337 5329 5318 5308 5300 5294 5287 5284 5281
5463 5461 5459 5455 5449 5445 5438 5431 5424 5415 5407 5397 5387 5375 5364 5355 5346 5338 5330 5321 5312 5302 5294 5291 5286 5282 5278
5454 5453 5450 5446 5441 5436 5429 5423 5416 5407 5399 5389 5378 5368 5358 5350 5342 5332 5323 5314 5305 5296 5290 5286 5282 5278 5273
5446 5445 5442 5437 5433 5428 5422 5415 5408 5400 5392 5382 5370 5360 5351 5343 5338 5328 5317 5309 5302 5295 5290 5284 5280 5274 5269